timestamp,surface_pressure_avg,surface_temp_avg,battery_voltage,lat,long
2022-06-28 00:09:00+00:00,341.5963,15.4,12.17,47.84626,-54.09684
2022-06-28 00:19:00+00:00,338.603,15.4,12.09,47.84626,-54.09684
2022-06-28 00:29:00+00:00,332.288,15.3,12.09,47.84626,-54.09684
2022-06-28 00:39:00+00:00,329.9246,15.4,12.09,47.84626,-54.09684
2022-06-28 00:49:00+00:00,326.5963,15.4,12.09,47.84626,-54.09684
2022-06-28 00:59:00+00:00,319.0613,15.36,12.09,47.84626,-54.09684
2022-06-28 01:09:00+00:00,311.5847,15.3,12.09,47.84626,-54.09684
2022-06-28 01:19:01+00:00,307.6647,15.27,12.09,47.84626,-54.09684
2022-06-28 01:29:01+00:00,304.6697,15.3,12.09,47.84626,-54.09684
2022-06-28 01:39:01+00:00,292.3663,15.3,12.09,47.84626,-54.09684
2022-06-28 01:49:01+00:00,282.848,15.34,12.09,47.84626,-54.09684
2022-06-28 01:59:01+00:00,279.2297,15.49,12.09,47.84626,-54.09684
2022-06-28 02:09:01+00:00,273.3647,16.1,12.09,47.84626,-54.09684
2022-06-28 02:19:00+00:00,265.3331,16.3,12.09,47.84626,-54.09684
2022-06-28 02:29:00+00:00,261.3264,16.3,12.09,47.84626,-54.09684
2022-06-28 02:39:00+00:00,253.693,16.37,12.09,47.84626,-54.09684
2022-06-28 02:49:00+00:00,243.2964,16.41,12.09,47.84626,-54.09684
2022-06-28 02:59:00+00:00,237.5048,16.41,12.09,47.84626,-54.09684
2022-06-28 03:09:00+00:00,234.0931,16.4,12.09,47.84626,-54.09684
2022-06-28 03:19:00+00:00,226.4715,16.4,12.09,47.84626,-54.09684
2022-06-28 03:29:00+00:00,220.2547,16.4,12.09,47.84626,-54.09684
2022-06-28 03:39:00+00:00,219.0514,16.4,12.09,47.84626,-54.09684
2022-06-28 03:49:00+00:00,214.6581,16.4,12.09,47.84626,-54.09684
2022-06-28 03:59:00+00:00,206.9331,16.6,12.09,47.84626,-54.09684
2022-06-28 04:09:00+00:00,201.9331,16.6,12.09,47.84626,-54.09684
2022-06-28 04:19:00+00:00,203.8414,16.6,12.09,47.84626,-54.09684
2022-06-28 04:29:00+00:00,204.7032,16.43,12.09,47.84626,-54.09684
2022-06-28 04:39:00+00:00,200.0314,16.63,12.09,47.84626,-54.09684
2022-06-28 04:49:00+00:00,197.3765,16.6,12.09,47.84626,-54.09684
2022-06-28 04:59:00+00:00,198.2198,16.2,12.09,47.84626,-54.09684
2022-06-28 05:09:00+00:00,196.0547,16.2,12.09,47.84626,-54.09684
2022-06-28 05:19:00+00:00,193.7731,16.16,12.09,47.84626,-54.09684
2022-06-28 05:29:00+00:00,196.0381,16.26,12.09,47.84626,-54.09684
2022-06-28 05:39:00+00:00,199.0015,16.68,12.09,47.84626,-54.09684
2022-06-28 05:49:00+00:00,197.7381,16.47,12.09,47.84626,-54.09684
2022-06-28 05:59:00+00:00,195.5748,16.73,12.09,47.84626,-54.09684
2022-06-28 06:09:00+00:00,198.6531,16.88,12.09,47.84626,-54.09684
2022-06-28 06:19:00+00:00,203.4031,16.29,12.09,47.84626,-54.09684
2022-06-28 06:29:00+00:00,205.1764,15.9,12.09,47.84626,-54.09684
2022-06-28 06:39:00+00:00,207.4131,15.81,12.09,47.84626,-54.09684
2022-06-28 06:49:00+00:00,209.6082,16.17,12.09,47.84626,-54.09684
2022-06-28 06:59:00+00:00,213.0648,15.98,12.09,47.84626,-54.09684
2022-06-28 07:09:00+00:00,215.3764,15.8,12.09,47.84626,-54.09684
2022-06-28 07:19:00+00:00,217.5531,15.7,12.09,47.84626,-54.09684
2022-06-28 07:29:00+00:00,222.5298,15.8,12.09,47.84626,-54.09684
2022-06-28 07:39:00+00:00,227.8364,15.8,12.09,47.84626,-54.09684
2022-06-28 07:49:00+00:00,230.1514,15.8,12.09,47.84626,-54.09684
2022-06-28 07:59:00+00:00,233.2914,15.8,12.09,47.84626,-54.09684
2022-06-28 08:09:00+00:00,237.8664,15.86,12.09,47.84626,-54.09684
2022-06-28 08:19:00+00:00,241.0414,15.9,12.09,47.84626,-54.09684
2022-06-28 08:29:00+00:00,242.1614,15.9,12.09,47.84626,-54.09684
2022-06-28 08:39:00+00:00,246.1914,15.8,12.09,47.84626,-54.09684
2022-06-28 08:49:00+00:00,255.4915,15.8,12.09,47.84626,-54.09684
2022-06-28 08:59:00+00:00,261.1364,15.8,12.09,47.84626,-54.09684
2022-06-28 09:09:00+00:00,266.3164,15.7,12.09,47.84626,-54.09684
2022-06-28 09:19:00+00:00,273.983,15.6,12.09,47.84626,-54.09684
2022-06-28 09:29:00+00:00,284.4547,15.4,12.09,47.84626,-54.09684
2022-06-28 09:39:00+00:00,288.9097,15.4,12.09,47.84626,-54.09684
2022-06-28 09:49:00+00:00,292.7131,15.4,12.09,47.84626,-54.09684
2022-06-28 09:59:00+00:00,298.0797,15.4,12.09,47.84626,-54.09684
2022-06-28 10:09:00+00:00,302.988,15.37,12.09,47.84626,-54.09684
2022-06-28 10:19:00+00:00,304.603,15.38,12.09,47.84626,-54.09684
2022-06-28 10:29:00+00:00,307.803,15.3,12.09,47.84626,-54.09684
2022-06-28 10:39:00+00:00,314.2497,15.3,12.09,47.84626,-54.09684
2022-06-28 10:49:00+00:00,317.3246,15.31,12.09,47.84626,-54.09684
2022-06-28 10:59:00+00:00,316.4596,15.4,12.09,47.84626,-54.09684
2022-06-28 11:09:00+00:00,317.9913,15.46,12.09,47.84626,-54.09684
2022-06-28 11:19:00+00:00,321.323,15.72,12.09,47.84626,-54.09684
2022-06-28 11:29:00+00:00,319.8848,15.8,12.09,47.84626,-54.09684
2022-06-28 11:39:00+00:00,314.2413,15.8,12.09,47.84626,-54.09684
2022-06-28 11:49:00+00:00,312.9797,15.5,12.09,47.84626,-54.09684
2022-06-28 11:59:00+00:00,311.8697,15.59,12.09,47.84626,-54.09684
2022-06-28 12:09:00+00:00,306.3846,15.7,12.09,47.84626,-54.09684
2022-06-28 12:19:00+00:00,302.9497,15.7,12.09,47.84626,-54.09684
2022-06-28 12:29:00+00:00,302.6213,15.9,12.09,47.84626,-54.09684
2022-06-28 12:39:00+00:00,299.0314,15.89,12.09,47.84626,-54.09684
2022-06-28 12:49:00+00:00,295.2114,15.7,12.09,47.84626,-54.09684
2022-06-28 12:59:00+00:00,295.3314,15.62,12.09,47.84626,-54.09684
2022-06-28 13:09:00+00:00,293.198,15.69,12.09,47.84626,-54.09684
2022-06-28 13:19:01+00:00,287.8981,15.71,12.09,47.84626,-54.09684
2022-06-28 13:29:01+00:00,284.2297,15.88,12.09,47.84626,-54.09684
2022-06-28 13:39:01+00:00,282.5381,16.04,12.09,47.84626,-54.09684
2022-06-28 13:49:01+00:00,277.1747,16.14,12.09,47.84626,-54.09684
2022-06-28 13:59:01+00:00,268.4714,16.2,12.09,47.84626,-54.09684
2022-06-28 14:09:01+00:00,261.4764,16.23,12.09,47.84626,-54.09684
2022-06-28 14:19:00+00:00,255.8497,16.2,12.09,47.84626,-54.09684
2022-06-28 14:29:00+00:00,249.5764,16.19,12.09,47.84626,-54.09684
2022-06-28 14:39:00+00:00,241.0815,16.33,12.09,47.84626,-54.09684
2022-06-28 14:49:00+00:00,234.7015,16.5,12.09,47.84626,-54.09684
2022-06-28 14:59:00+00:00,228.6981,16.6,12.09,47.84626,-54.09684
2022-06-28 15:09:00+00:00,222.4331,16.5,12.09,47.84626,-54.09684
2022-06-28 15:19:00+00:00,217.5298,16.55,12.09,47.84626,-54.09684
2022-06-28 15:29:00+00:00,212.9098,16.6,12.09,47.84626,-54.09684
2022-06-28 15:39:00+00:00,206.2214,16.7,12.09,47.84626,-54.09684
2022-06-28 15:49:00+00:00,202.9398,16.69,12.09,47.84626,-54.09684
2022-06-28 15:59:00+00:00,201.7981,16.7,12.09,47.84626,-54.09684
2022-06-28 16:09:00+00:00,199.1215,16.7,12.09,47.84626,-54.09684
2022-06-28 16:19:00+00:00,197.3448,16.7,12.25,47.84626,-54.09684
2022-06-28 16:29:00+00:00,198.3814,16.7,12.25,47.84626,-54.09684
2022-06-28 16:39:00+00:00,199.4198,16.7,12.25,47.84626,-54.09684
2022-06-28 16:49:00+00:00,197.6181,16.78,12.25,47.84626,-54.09684
2022-06-28 16:59:00+00:00,198.6748,16.78,12.25,47.84626,-54.09684
2022-06-28 17:09:00+00:00,201.9681,16.7,12.25,47.84626,-54.09684
2022-06-28 17:19:00+00:00,201.1531,16.7,12.33,47.84626,-54.09684
2022-06-28 17:29:00+00:00,198.4364,16.7,12.33,47.84626,-54.09684
2022-06-28 17:39:00+00:00,199.3814,16.7,12.33,47.84626,-54.09684
2022-06-28 17:49:00+00:00,201.9098,16.7,12.33,47.84626,-54.09684
2022-06-28 17:59:00+00:00,202.2848,16.66,12.33,47.84626,-54.09684
2022-06-28 18:09:00+00:00,203.7481,16.6,12.33,47.84626,-54.09684
2022-06-28 18:19:00+00:00,209.6964,16.5,12.33,47.84626,-54.09684
2022-06-28 18:29:00+00:00,214.2364,16.4,12.33,47.84626,-54.09684
2022-06-28 18:39:00+00:00,214.1532,16.4,12.33,47.84626,-54.09684
2022-06-28 18:49:00+00:00,217.0848,16.3,12.33,47.84626,-54.09684
2022-06-28 18:59:00+00:00,222.2497,16.15,12.33,47.84626,-54.09684
2022-06-28 19:09:00+00:00,225.3365,16.02,12.33,47.84626,-54.09684
2022-06-28 19:19:00+00:00,228.0198,16.0,12.33,47.84626,-54.09684
2022-06-28 19:29:00+00:00,233.0348,16.0,12.33,47.84626,-54.09684
2022-06-28 19:39:00+00:00,240.6881,15.9,12.33,47.84626,-54.09684
2022-06-28 19:49:00+00:00,247.923,15.8,12.33,47.84626,-54.09684
2022-06-28 19:59:00+00:00,250.653,15.8,12.33,47.84626,-54.09684
2022-06-28 20:09:00+00:00,254.3214,15.79,12.33,47.84626,-54.09684
2022-06-28 20:19:01+00:00,261.2731,15.6,12.25,47.84626,-54.09684
2022-06-28 20:29:01+00:00,265.2365,15.51,12.25,47.84626,-54.09684
2022-06-28 20:39:01+00:00,266.6281,15.6,12.25,47.84626,-54.09684
2022-06-28 20:49:01+00:00,273.0781,15.69,12.25,47.84626,-54.09684
2022-06-28 20:59:01+00:00,281.7531,15.4,12.25,47.84626,-54.09684
2022-06-28 21:09:01+00:00,285.328,15.66,12.25,47.84626,-54.09684
2022-06-28 21:19:00+00:00,287.9664,16.06,12.25,47.84626,-54.09684
2022-06-28 21:29:00+00:00,296.4913,16.1,12.25,47.84626,-54.09684
2022-06-28 21:39:00+00:00,302.9664,16.1,12.25,47.84626,-54.09684
2022-06-28 21:49:00+00:00,305.1413,15.9,12.25,47.84626,-54.09684
2022-06-28 21:59:00+00:00,312.188,15.99,12.25,47.84626,-54.09684
2022-06-28 22:09:00+00:00,321.008,16.08,12.25,47.84626,-54.09684
2022-06-28 22:19:00+00:00,323.728,16.07,12.17,47.84626,-54.09684
2022-06-28 22:29:00+00:00,327.5747,16.0,12.17,47.84626,-54.09684
2022-06-28 22:39:00+00:00,334.7029,16.0,12.17,47.84626,-54.09684
2022-06-28 22:49:00+00:00,338.023,16.0,12.17,47.84626,-54.09684
2022-06-28 22:59:00+00:00,339.0546,15.66,12.17,47.84626,-54.09684
2022-06-28 23:09:00+00:00,343.7096,15.5,12.17,47.84626,-54.09684
2022-06-28 23:19:00+00:00,347.8997,15.5,12.17,47.84626,-54.09684
2022-06-28 23:29:00+00:00,346.9613,15.3,12.17,47.84626,-54.09684
2022-06-28 23:39:00+00:00,345.61800000000005,15.1,12.17,47.84626,-54.09684
2022-06-28 23:49:00+00:00,345.9046,15.21,12.17,47.84626,-54.09684
2022-06-28 23:59:00+00:00,347.38800000000015,15.46,12.17,47.84626,-54.09684
